Location: Rowland
(34.5359°N, 79.2929°W)
Time: 16:34:37
(UTC+00:00)

S-56A Canister/Altair - Pass Details

Date: 11 October 2022
Orbit: 638 x 2494 km, 38.9° (Epoch: 06 December)

Event Time Altitude Azimuth Distance (km) Brightness Sun altitude
Rises 00:37:52 0° 196° (SSW) 5,854 12.1 -23.2°
Reaches altitude 10° 00:42:26 10° 185° (S) 5,008 11.6 -24.1°
Enters shadow 00:53:47 28° 135° (SE) 3,857 10.6 -26.4°
